Time,TemperatureF,DewpointF,PressureIn,WindDirection,WindDirectionDegrees,WindSpeedMPH,WindSpeedGustMPH,Humidity,HourlyPrecipIn,Conditions,Clouds,dailyrainin,SoftwareType,DateUTC
2013-02-18 00:01:00,35.0,34.0,30.09,North,0,0.0,0.0,97,30.52,,,-99.99,,2013-02-18 08:01:00,
2013-02-18 00:11:00,35.0,34.0,30.09,North,0,0.0,0.0,97,30.52,,,-99.99,,2013-02-18 08:11:00,
2013-02-18 00:21:00,35.0,34.0,30.09,North,0,0.0,0.0,97,30.52,,,-99.99,,2013-02-18 08:21:00,
2013-02-18 00:32:00,34.0,33.0,30.08,North,0,0.0,0.0,97,30.52,,,-99.99,,2013-02-18 08:32:00,
2013-02-18 00:42:00,34.0,33.0,30.08,North,0,0.0,0.0,97,30.52,,,-99.99,,2013-02-18 08:42:00,
2013-02-18 00:52:00,34.0,33.0,30.07,North,0,0.0,0.0,97,30.52,,,-99.99,,2013-02-18 08:52:00,
2013-02-18 01:02:00,34.0,33.0,30.07,North,0,0.0,0.0,97,30.52,,,-99.99,,2013-02-18 09:02:00,
2013-02-18 01:11:00,34.0,33.0,30.07,North,0,0.0,0.0,97,30.52,,,-99.99,,2013-02-18 09:11:00,
2013-02-18 01:22:00,33.0,32.0,30.06,North,0,0.0,0.0,97,30.52,,,-99.99,,2013-02-18 09:22:00,
2013-02-18 01:31:00,33.0,32.0,30.06,North,0,0.0,0.0,98,30.52,,,-99.99,,2013-02-18 09:31:00,
2013-02-18 01:42:00,33.0,32.0,30.06,North,0,0.0,0.0,98,30.52,,,-99.99,,2013-02-18 09:42:00,
2013-02-18 01:52:00,33.0,32.0,30.06,North,0,0.0,0.0,98,30.52,,,-99.99,,2013-02-18 09:52:00,
2013-02-18 02:01:00,33.0,32.0,30.06,North,0,0.0,0.0,98,30.52,,,-99.99,,2013-02-18 10:01:00,
2013-02-18 02:11:00,33.0,32.0,30.06,North,0,0.0,0.0,98,30.52,,,-99.99,,2013-02-18 10:11:00,
2013-02-18 02:21:00,33.0,32.0,30.04,North,0,0.0,0.0,98,30.52,,,-99.99,,2013-02-18 10:21:00,
2013-02-18 02:31:00,33.0,32.0,30.04,North,0,0.0,0.0,98,30.52,,,-99.99,,2013-02-18 10:31:00,
2013-02-18 02:42:00,33.0,32.0,30.04,North,0,0.0,0.0,98,30.52,,,-99.99,,2013-02-18 10:42:00,
2013-02-18 02:51:00,33.0,32.0,30.04,North,0,0.0,0.0,98,30.52,,,-99.99,,2013-02-18 10:51:00,
2013-02-18 03:01:00,33.0,32.0,30.04,North,0,0.0,0.0,98,30.52,,,-99.99,,2013-02-18 11:01:00,
2013-02-18 03:22:00,33.0,32.0,30.01,North,0,0.0,0.0,98,30.52,,,-99.99,,2013-02-18 11:22:00,
2013-02-18 03:33:00,33.0,32.0,30.01,North,0,0.0,0.0,98,30.52,,,-99.99,,2013-02-18 11:33:00,
2013-02-18 03:43:00,33.0,32.0,30.01,North,0,0.0,0.0,98,30.52,,,-99.99,,2013-02-18 11:43:00,
2013-02-18 03:52:00,33.0,32.0,30.01,North,0,0.0,0.0,98,30.52,,,-99.99,,2013-02-18 11:52:00,
2013-02-18 04:53:00,33.0,32.0,29.99,North,0,0.0,0.0,98,30.52,,,-99.99,,2013-02-18 12:53:00,
2013-02-18 05:02:00,33.0,32.0,29.99,North,0,0.0,0.0,98,30.52,,,-99.99,,2013-02-18 13:02:00,
2013-02-18 05:11:00,33.0,32.0,29.99,North,0,0.0,0.0,98,30.52,,,-99.99,,2013-02-18 13:11:00,
2013-02-18 05:21:00,33.0,32.0,29.97,North,0,0.0,0.0,98,30.52,,,-99.99,,2013-02-18 13:21:00,
2013-02-18 05:22:00,33.0,32.0,29.99,North,0,0.0,0.0,98,30.52,,,-99.99,,2013-02-18 13:22:00,
2013-02-18 05:31:00,33.0,32.0,29.98,North,0,0.0,0.0,98,30.52,,,-99.99,,2013-02-18 13:31:00,
2013-02-18 05:41:00,33.0,32.0,29.98,North,0,0.0,0.0,98,30.52,,,-99.99,,2013-02-18 13:41:00,
2013-02-18 05:53:00,33.0,32.0,29.97,North,0,0.0,0.0,98,30.52,,,-99.99,,2013-02-18 13:53:00,
2013-02-18 06:02:00,33.0,32.0,29.97,North,0,0.0,0.0,98,30.52,,,-99.99,,2013-02-18 14:02:00,
2013-02-18 06:11:00,33.0,32.0,29.97,North,0,0.0,0.0,98,30.52,,,-99.99,,2013-02-18 14:11:00,
2013-02-18 06:33:00,33.0,32.0,29.96,North,0,0.0,0.0,98,30.52,,,-99.99,,2013-02-18 14:33:00,
2013-02-18 06:41:00,33.0,32.0,29.95,North,0,0.0,0.0,98,30.52,,,-99.99,,2013-02-18 14:41:00,
2013-02-18 06:42:00,33.0,32.0,29.96,North,0,0.0,0.0,98,30.52,,,-99.99,,2013-02-18 14:42:00,
2013-02-18 06:53:00,33.0,32.0,29.96,North,0,0.0,0.0,98,30.52,,,-99.99,,2013-02-18 14:53:00,
2013-02-18 07:01:00,33.0,32.0,29.95,North,0,0.0,0.0,98,30.52,,,-99.99,,2013-02-18 15:01:00,
2013-02-18 07:11:00,33.0,32.0,29.95,North,0,0.0,0.0,98,30.52,,,-99.99,,2013-02-18 15:11:00,
2013-02-18 07:21:00,33.0,32.0,29.95,North,0,0.0,0.0,98,30.52,,,-99.99,,2013-02-18 15:21:00,
2013-02-18 07:31:00,33.0,32.0,29.95,North,0,0.0,0.0,98,30.52,,,-99.99,,2013-02-18 15:31:00,
2013-02-18 08:02:00,33.0,32.0,29.96,North,0,0.0,0.0,98,30.52,,,-99.99,,2013-02-18 16:02:00,
2013-02-18 08:12:00,33.0,32.0,29.96,North,0,0.0,0.0,98,30.52,,,-99.99,,2013-02-18 16:12:00,
2013-02-18 08:22:00,33.0,32.0,29.96,North,0,0.0,0.0,98,30.52,,,-99.99,,2013-02-18 16:22:00,
2013-02-18 08:32:00,34.0,34.0,29.95,North,0,0.0,0.0,98,30.52,,,-99.99,,2013-02-18 16:32:00,
2013-02-18 08:41:00,34.0,34.0,29.95,North,0,0.0,0.0,98,30.52,,,-99.99,,2013-02-18 16:41:00,
2013-02-18 08:51:00,34.0,34.0,29.95,North,0,0.0,0.0,98,30.52,,,-99.99,,2013-02-18 16:51:00,
2013-02-18 09:02:00,34.0,34.0,29.96,North,0,0.0,0.0,98,30.52,,,-99.99,,2013-02-18 17:02:00,
2013-02-18 09:22:00,34.0,34.0,29.96,North,0,0.0,0.0,98,30.52,,,-99.99,,2013-02-18 17:22:00,
2013-02-18 09:32:00,35.0,34.0,29.96,North,0,0.0,0.0,98,30.52,,,-99.99,,2013-02-18 17:32:00,
2013-02-18 09:41:00,35.0,34.0,29.96,North,0,0.0,0.0,98,30.52,,,-99.99,,2013-02-18 17:41:00,
2013-02-18 09:52:00,35.0,34.0,29.96,North,0,0.0,0.0,98,30.52,,,-99.99,,2013-02-18 17:52:00,
2013-02-18 10:01:00,35.0,34.0,29.96,North,0,0.0,0.0,98,30.52,,,-99.99,,2013-02-18 18:01:00,
2013-02-18 10:11:00,35.0,34.0,29.96,North,0,0.0,0.0,98,30.52,,,-99.99,,2013-02-18 18:11:00,
2013-02-18 10:22:00,35.0,34.0,29.96,North,0,0.0,0.0,98,30.52,,,-99.99,,2013-02-18 18:22:00,
2013-02-18 10:43:00,36.0,35.0,29.94,North,0,0.0,0.0,97,30.52,,,-99.99,,2013-02-18 18:43:00,
2013-02-18 10:52:00,36.0,35.0,29.94,North,0,0.0,0.0,97,30.52,,,-99.99,,2013-02-18 18:52:00,
2013-02-18 11:02:00,39.0,37.0,29.92,WSW,256,1.0,4.0,93,30.52,,,-99.99,,2013-02-18 19:02:00,
2013-02-18 11:11:00,39.0,37.0,29.92,WSW,256,1.0,4.0,93,30.52,,,-99.99,,2013-02-18 19:11:00,
2013-02-18 11:22:00,39.0,37.0,29.92,WSW,256,1.0,4.0,93,30.52,,,-99.99,,2013-02-18 19:22:00,
2013-02-18 11:32:00,39.0,37.0,29.92,WSW,256,1.0,4.0,93,30.52,,,-99.99,,2013-02-18 19:32:00,
2013-02-18 11:41:00,39.0,37.0,29.92,WSW,256,1.0,4.0,93,30.52,,,-99.99,,2013-02-18 19:41:00,
2013-02-18 12:02:00,41.0,37.0,29.92,SW,222,1.0,3.0,86,30.52,,,-99.99,,2013-02-18 20:02:00,
2013-02-18 12:12:00,41.0,37.0,29.92,SW,222,1.0,3.0,86,30.52,,,-99.99,,2013-02-18 20:12:00,
2013-02-18 12:22:00,41.0,37.0,29.92,SW,222,1.0,3.0,86,30.52,,,-99.99,,2013-02-18 20:22:00,
2013-02-18 12:32:00,41.0,37.0,29.92,SW,222,1.0,3.0,86,30.52,,,-99.99,,2013-02-18 20:32:00,
2013-02-18 12:41:00,41.0,37.0,29.92,SW,222,1.0,3.0,86,30.52,,,-99.99,,2013-02-18 20:41:00,
2013-02-18 13:53:00,44.0,38.0,29.88,SSW,194,1.0,4.0,79,30.52,,,-99.99,,2013-02-18 21:53:00,
2013-02-18 14:02:00,44.0,37.0,29.87,SSE,159,0.0,3.0,77,30.52,,,-99.99,,2013-02-18 22:02:00,
2013-02-18 14:11:00,44.0,37.0,29.87,SSE,159,0.0,3.0,77,30.52,,,-99.99,,2013-02-18 22:11:00,
2013-02-18 14:21:00,44.0,37.0,29.87,SSE,159,0.0,3.0,77,30.52,,,-99.99,,2013-02-18 22:21:00,
2013-02-18 14:32:00,45.0,38.0,29.87,South,191,2.0,5.0,75,30.52,,,-99.99,,2013-02-18 22:32:00,
2013-02-18 14:43:00,45.0,38.0,29.87,South,191,2.0,5.0,75,30.52,,,-99.99,,2013-02-18 22:43:00,
2013-02-18 14:51:00,45.0,38.0,29.86,WSW,246,2.0,7.0,76,30.52,,,-99.99,,2013-02-18 22:51:00,
2013-02-18 14:53:00,45.0,38.0,29.87,SW,236,1.0,3.0,76,30.52,,,-99.99,,2013-02-18 22:53:00,
2013-02-18 15:01:00,45.0,38.0,29.87,SW,236,1.0,3.0,76,30.52,,,-99.99,,2013-02-18 23:01:00,
2013-02-18 15:11:00,45.0,38.0,29.87,SW,236,1.0,3.0,76,30.52,,,-99.99,,2013-02-18 23:11:00,
2013-02-18 15:21:00,45.0,38.0,29.86,WSW,246,2.0,7.0,76,30.52,,,-99.99,,2013-02-18 23:21:00,
2013-02-18 15:32:00,45.0,38.0,29.86,WSW,246,2.0,7.0,76,30.52,,,-99.99,,2013-02-18 23:32:00,
2013-02-18 15:42:00,45.0,38.0,29.86,WSW,246,2.0,7.0,76,30.52,,,-99.99,,2013-02-18 23:42:00,
2013-02-18 16:02:00,44.0,38.0,29.85,SSE,160,1.0,10.0,78,30.52,,,-99.99,,2013-02-19 00:02:00,
2013-02-18 16:12:00,44.0,38.0,29.85,SSE,160,1.0,10.0,78,30.52,,,-99.99,,2013-02-19 00:12:00,
2013-02-18 16:22:00,44.0,38.0,29.85,SSE,160,1.0,10.0,78,30.52,,,-99.99,,2013-02-19 00:22:00,
2013-02-18 16:32:00,44.0,38.0,29.84,North,359,0.0,5.0,78,30.52,,,-99.99,,2013-02-19 00:32:00,
2013-02-18 16:41:00,44.0,38.0,29.84,North,359,0.0,5.0,78,30.52,,,-99.99,,2013-02-19 00:41:00,
2013-02-18 16:54:00,44.0,38.0,29.84,North,359,0.0,5.0,78,30.52,,,-99.99,,2013-02-19 00:54:00,
2013-02-18 17:02:00,44.0,38.0,29.84,North,359,0.0,5.0,78,30.52,,,-99.99,,2013-02-19 01:02:00,
2013-02-18 17:11:00,44.0,38.0,29.84,North,359,0.0,5.0,78,30.52,,,-99.99,,2013-02-19 01:11:00,
2013-02-18 17:35:00,42.0,38.0,29.82,North,0,0.0,0.0,85,30.52,,,-99.99,,2013-02-19 01:35:00,
2013-02-18 17:44:00,42.0,38.0,29.82,North,0,0.0,0.0,85,30.52,,,-99.99,,2013-02-19 01:44:00,
2013-02-18 17:55:00,42.0,38.0,29.82,North,0,0.0,0.0,85,30.52,,,-99.99,,2013-02-19 01:55:00,
2013-02-18 18:02:00,42.0,38.0,29.81,North,0,0.0,0.0,85,30.52,,,-99.99,,2013-02-19 02:02:00,
2013-02-18 18:11:00,42.0,38.0,29.81,North,0,0.0,0.0,85,30.52,,,-99.99,,2013-02-19 02:11:00,
2013-02-18 18:22:00,42.0,38.0,29.81,North,0,0.0,0.0,85,30.52,,,-99.99,,2013-02-19 02:22:00,
2013-02-18 18:33:00,42.0,38.0,29.81,North,0,0.0,0.0,85,30.52,,,-99.99,,2013-02-19 02:33:00,
2013-02-18 18:42:00,42.0,38.0,29.81,North,0,0.0,0.0,85,30.52,,,-99.99,,2013-02-19 02:42:00,
2013-02-18 18:54:00,40.0,37.0,29.80,North,0,0.0,0.0,89,30.52,,,-99.99,,2013-02-19 02:54:00,
2013-02-18 19:04:00,40.0,37.0,29.80,North,0,0.0,0.0,89,30.52,,,-99.99,,2013-02-19 03:04:00,
2013-02-18 19:21:00,39.0,37.0,29.80,North,0,0.0,0.0,91,30.52,,,-99.99,,2013-02-19 03:21:00,
2013-02-18 19:33:00,39.0,37.0,29.79,North,0,0.0,0.0,92,30.52,,,-99.99,,2013-02-19 03:33:00,
2013-02-18 19:43:00,39.0,37.0,29.79,North,0,0.0,0.0,92,30.52,,,-99.99,,2013-02-19 03:43:00,
2013-02-18 19:52:00,39.0,37.0,29.79,North,0,0.0,0.0,92,30.52,,,-99.99,,2013-02-19 03:52:00,
2013-02-18 20:02:00,39.0,37.0,29.79,North,0,0.0,0.0,92,30.52,,,-99.99,,2013-02-19 04:02:00,
2013-02-18 20:11:00,39.0,37.0,29.79,North,0,0.0,0.0,92,30.52,,,-99.99,,2013-02-19 04:11:00,
2013-02-18 21:02:00,38.0,36.0,29.76,North,0,0.0,0.0,94,30.52,,,-99.99,,2013-02-19 05:02:00,
2013-02-18 21:12:00,38.0,36.0,29.76,North,0,0.0,0.0,94,30.52,,,-99.99,,2013-02-19 05:12:00,
2013-02-18 21:22:00,38.0,37.0,29.75,North,0,0.0,0.0,95,30.52,,,-99.99,,2013-02-19 05:22:00,
2013-02-18 21:32:00,36.0,35.0,29.75,North,0,0.0,0.0,95,30.52,,,-99.99,,2013-02-19 05:32:00,
2013-02-18 21:42:00,36.0,35.0,29.75,North,0,0.0,0.0,95,30.52,,,-99.99,,2013-02-19 05:42:00,
2013-02-18 21:52:00,37.0,36.0,29.75,North,0,0.0,0.0,95,30.52,,,-99.99,,2013-02-19 05:52:00,
2013-02-18 22:02:00,37.0,36.0,29.75,North,0,0.0,0.0,95,30.52,,,-99.99,,2013-02-19 06:02:00,
2013-02-18 22:11:00,37.0,36.0,29.75,North,0,0.0,0.0,95,30.52,,,-99.99,,2013-02-19 06:11:00,
2013-02-18 22:21:00,36.0,35.0,29.73,North,0,0.0,0.0,96,30.52,,,-99.99,,2013-02-19 06:21:00,
2013-02-18 22:32:00,36.0,35.0,29.73,North,0,0.0,0.0,96,30.52,,,-99.99,,2013-02-19 06:32:00,
2013-02-18 22:42:00,36.0,35.0,29.73,North,0,0.0,0.0,96,30.52,,,-99.99,,2013-02-19 06:42:00,
2013-02-18 22:52:00,36.0,35.0,29.73,North,0,0.0,0.0,96,30.52,,,-99.99,,2013-02-19 06:52:00,
2013-02-18 23:01:00,37.0,36.0,29.74,North,0,0.0,0.0,95,30.52,,,-99.99,,2013-02-19 07:01:00,
2013-02-18 23:11:00,37.0,36.0,29.74,North,0,0.0,0.0,95,30.52,,,-99.99,,2013-02-19 07:11:00,
2013-02-18 23:21:00,37.0,36.0,29.74,North,0,0.0,0.0,95,30.52,,,-99.99,,2013-02-19 07:21:00,
2013-02-18 23:32:00,37.0,36.0,29.74,North,0,0.0,0.0,95,30.52,,,-99.99,,2013-02-19 07:32:00,
2013-02-18 23:41:00,37.0,36.0,29.74,North,0,0.0,0.0,95,30.52,,,-99.99,,2013-02-19 07:41:00,